Location: Newark
(44.3449°N, 4.8694°E)
Time: 22:48:29
(UTC+00:00)

Envisat - Pass Details

Date: 26 January 2020
Orbit: 764 x 766 km, 98.1° (Epoch: 27 February)

Event Time Altitude Azimuth Distance (km) Brightness Sun altitude
Rises 05:34:34 0° 23° (NNE) 3,242 6.4 -16.3°
Reaches altitude 10° 05:37:10 10° 34° (NE) 2,311 5.8 -15.8°
Maximum altitude 05:41:36 29° 95° (E) 1,370 5.1 -15.0°
Drops below altitude 10° 05:45:59 10° 155° (SSE) 2,295 6.0 -14.3°
Sets 05:48:33 0° 166° (SSE) 3,216 6.6 -13.8°
